DW2217 Weather Reports


time (UTC)temp
C
wind
direction
speed
KPH
gust
KPH
rain 1hr
cm
rain 24hr
cm
rain mn
cm
humidity
%
barometer
mb
20260903162836 16 117 0.0 3.2 0.00 0.58 0.58 98 1013.9
20260903162333 16 110 0.0 3.2 0.00 0.58 0.58 98 1013.9
20260903161828 16 110 0.0 3.2 0.00 0.58 0.58 98 1014.1
20260903161324 16 110 0.0 0.0 0.00 0.58 0.58 98 1014.1
20260903160819 16 110 0.0 3.2 0.00 0.58 0.58 98 1014.3
20260903160318 16 110 0.0 0.0 0.00 0.58 0.58 98 1014.3
20260903155817 16 110 0.0 3.2 0.00 0.58 0.58 98 1014.4
20260903155312 16 110 0.0 3.2 0.00 0.58 0.58 98 1014.5
20260903154808 16 109 0.0 0.0 0.00 0.58 0.58 98 1014.6
20260903154304 16 109 0.0 0.0 0.00 0.58 0.58 98 1014.7
20260903153759 16 109 0.0 3.2 0.00 0.58 0.58 98 1014.7
20260903153255 16 109 0.0 0.0 0.00 0.58 0.58 98 1014.9
20260903152751 16 109 0.0 0.0 0.00 0.58 0.58 98 1014.7
20260903152246 16 109 1.6 3.2 0.00 0.58 0.58 98 1015.1
20260903151740 16 109 3.2 3.2 0.00 0.58 0.58 98 1015.0
20260903151236 16 109 1.6 3.2 0.00 0.58 0.58 98 1015.0
20260903150731 16 109 0.0 0.0 0.00 0.58 0.58 98 1015.1
20260903150225 16 109 0.0 3.2 0.00 0.58 0.58 98 1015.1
20260903145725 16 109 0.0 0.0 0.00 0.58 0.58 98 1015.0
20260903145221 16 109 1.6 3.2 0.00 0.58 0.58 98 1014.8
20260903144719 16 109 0.0 3.2 0.00 0.58 0.58 98 1015.1
20260903144216 15 109 0.0 0.0 0.00 0.58 0.58 98 1015.0
20260903143711 15 109 0.0 0.0 0.00 0.58 0.58 98 1015.1
20260903143207 15 109 0.0 3.2 0.00 0.58 0.58 98 1015.0
20260903142702 15 109 0.0 0.0 0.00 0.58 0.58 98 1015.1
20260903142159 15 109 0.0 0.0 0.00 0.58 0.58 98 1015.4
20260903141654 15 109 0.0 3.2 0.00 0.58 0.58 98 1015.1
20260903141148 15 109 0.0 0.0 0.13 0.58 0.58 98 1015.2
20260903140645 15 109 0.0 3.2 0.13 0.58 0.58 98 1015.1
20260903140140 15 109 0.0 0.0 0.00 0.56 0.56 98 1015.3
20260903135636 15 109 1.6 3.2 0.00 0.56 0.56 98 1015.2
20260903135130 15 109 0.0 0.0 0.00 0.56 0.56 98 1015.3
20260903134629 15 109 0.0 0.0 0.00 0.56 0.56 98 1015.4
20260903134125 15 109 0.0 0.0 0.00 0.56 0.56 98 1015.6
20260903133623 15 109 0.0 0.0 0.00 0.56 0.56 98 1015.5
20260903133119 15 109 0.0 0.0 0.00 0.56 0.56 98 1015.3
20260903132614 15 109 0.0 0.0 0.18 0.56 0.56 98 1015.6
20260903132113 15 110 0.0 0.0 0.00 0.53 0.53 98 1015.4
20260903131608 15 110 0.0 0.0 0.00 0.53 0.53 98 1015.4
20260903131107 15 110 0.0 0.0 0.00 0.53 0.53 98 1015.5
20260903130603 15 110 0.0 0.0 0.00 0.53 0.53 98 1015.6
20260903130057 15 110 0.0 0.0 0.00 0.53 0.53 98 1015.7
20260903125555 15 110 0.0 0.0 0.00 0.53 0.53 98 1015.6
20260903125050 15 110 0.0 0.0 0.00 0.53 0.53 98 1015.8
20260903124545 15 105 0.0 0.0 0.00 0.53 0.53 98 1015.8
20260903124044 15 102 0.0 0.0 0.00 0.53 0.53 98 1016.0
20260903123544 15 101 0.0 0.0 0.00 0.53 0.53 98 1015.8
20260903123043 15 101 0.0 0.0 0.00 0.53 0.53 98 1015.8
20260903122542 15 101 0.0 0.0 0.00 0.53 0.53 98 1015.9
20260903122042 15 101 0.0 0.0 0.00 0.53 0.53 98 1015.9
20260903121537 15 101 0.0 0.0 0.00 0.53 0.53 98 1016.0
20260903121033 15 101 0.0 0.0 0.00 0.53 0.53 98 1015.9
20260903120531 14 101 0.0 0.0 0.00 0.53 0.53 98 1016.2
20260903120026 14 101 0.0 0.0 0.00 0.53 0.53 98 1016.3
20260903115525 14 101 0.0 0.0 0.00 0.53 0.53 98 1016.3
20260903115020 14 101 0.0 0.0 0.00 0.53 0.53 98 1016.3
20260903114515 14 101 0.0 0.0 0.13 0.53 0.53 98 1016.3
20260903114011 14 102 0.0 3.2 0.13 0.53 0.53 98 1016.4
20260903113506 14 101 0.0 0.0 0.00 0.51 0.51 98 1016.3
20260903113002 14 102 0.0 0.0 0.00 0.51 0.51 98 1016.3
20260903112458 14 102 0.0 0.0 0.00 0.51 0.51 98 1016.2
20260903111957 14 102 0.0 0.0 0.18 0.51 0.51 98 1016.2
20260903111451 14 102 0.0 3.2 0.18 0.51 0.51 98 1016.3
20260903110947 14 120 0.0 0.0 0.00 0.48 0.48 98 1016.4
20260903110443 14 112 0.0 3.2 0.00 0.48 0.48 98 1016.4
20260903105937 14 149 1.6 4.8 0.00 0.48 0.48 98 1016.1
20260903105432 14 100 0.0 3.2 0.00 0.48 0.48 98 1016.1
20260903104932 14 95 0.0 3.2 0.00 0.48 0.48 98 1016.1
20260903104426 14 117 0.0 3.2 0.00 0.48 0.48 98 1015.8
20260903103923 15 90 1.6 3.2 0.00 0.48 0.48 98 1015.9
20260903103419 15 101 1.6 3.2 0.00 0.48 0.48 98 1015.9
20260903102914 15 89 1.6 3.2 0.00 0.48 0.48 98 1015.9
20260903102409 15 99 0.0 3.2 0.00 0.48 0.48 98 1016.0
20260903101908 15 98 0.0 0.0 0.00 0.48 0.48 98 1016.1
20260903101403 15 98 0.0 0.0 0.00 0.48 0.48 98 1016.1
20260903100859 15 99 0.0 0.0 0.00 0.48 0.48 98 1016.1
20260903100353 15 99 0.0 0.0 0.00 0.48 0.48 98 1016.2
20260903095850 15 99 0.0 0.0 0.00 0.48 0.48 98 1016.3
20260903095344 15 100 0.0 3.2 0.00 0.48 0.48 98 1016.3
20260903094840 15 99 0.0 3.2 0.00 0.48 0.48 98 1016.2
20260903094339 15 98 0.0 3.2 0.00 0.48 0.48 98 1016.4
20260903093836 15 98 0.0 0.0 0.00 0.48 0.48 98 1016.1
20260903093331 15 98 0.0 0.0 0.00 0.48 0.48 98 1016.2
20260903092826 15 98 3.2 3.2 0.00 0.48 0.48 98 1016.2
20260903092320 15 98 0.0 3.2 0.00 0.48 0.48 98 1016.2
20260903091819 15 98 0.0 0.0 0.00 0.48 0.48 98 1016.6
20260903091313 15 97 0.0 0.0 0.30 0.48 0.48 98 1016.6
20260903090809 15 96 0.0 4.8 0.71 0.48 0.48 98 1016.7
20260903090309 15 121 1.6 3.2 1.07 0.43 0.43 98 1016.9
20260903085807 15 115 0.0 0.0 0.61 0.33 0.33 98 1016.6
20260903085305 15 123 0.0 3.2 0.61 0.25 0.25 98 1017.1
20260903084800 15 143 1.6 3.2 0.61 0.20 0.20 98 1017.3
20260903084254 15 131 1.6 3.2 0.43 0.15 0.15 98 1017.2
20260903083750 16 128 0.0 3.2 0.13 0.10 0.10 98 1016.9
20260903083244 15 128 1.6 3.2 0.00 0.08 0.08 98 1017.0
20260903082744 15 121 0.0 0.0 0.00 0.08 0.08 98 1017.1
20260903082240 16 121 0.0 0.0 0.00 0.08 0.08 98 1017.0
20260903081739 16 124 0.0 3.2 0.00 0.08 0.08 98 1017.1
20260903081236 16 177 3.2 4.8 0.00 0.08 0.08 98 1017.2
20260903080732 16 90 1.6 3.2 0.00 0.08 0.08 98 1016.9
20260903080229 16 94 0.0 0.0 0.00 0.08 0.08 98 1016.6
20260903075728 16 95 3.2 3.2 0.00 0.08 0.08 98 1016.6
20260903075223 15 95 0.0 0.0 0.00 0.08 0.08 98 1016.7
20260903074722 15 95 0.0 3.2 0.00 0.08 0.08 98 1016.6
20260903074212 15 95 3.2 3.2 0.00 0.08 0.08 98 1016.7
20260903073707 15 95 3.2 3.2 0.00 0.08 0.08 98 1016.6
20260903073202 15 95 3.2 4.8 0.00 0.08 0.08 98 1016.9
20260903072658 15 94 1.6 3.2 0.00 0.08 0.08 98 1017.0
20260903072155 15 94 1.6 3.2 0.00 0.08 0.08 98 1017.1
20260903071650 15 96 0.0 3.2 0.00 0.08 0.08 98 1017.2
20260903071146 16 97 3.2 3.2 0.00 0.08 0.08 98 1017.3
20260903070646 16 96 1.6 4.8 0.00 0.08 0.08 98 1017.2
20260903070142 16 128 3.2 3.2 0.00 0.08 0.08 98 1017.3
20260903065641 16 128 3.2 3.2 0.18 0.08 0.08 98 1017.5
20260903065135 16 129 0.0 3.2 0.18 0.08 0.08 98 1017.7
20260903064629 16 129 3.2 3.2 0.00 0.05 0.05 98 1017.6
20260903064125 16 130 0.0 0.0 0.00 0.05 0.05 98 1018.0
20260903063621 16 130 0.0 3.2 0.13 0.05 0.05 98 1017.9
20260903063115 16 131 0.0 0.0 0.13 0.05 0.05 98 1018.1
20260903062611 16 132 0.0 0.0 0.00 0.03 0.03 98 1018.2
20260903062106 16 155 0.0 3.2 0.00 0.03 0.03 98 1018.1
20260903061607 16 155 0.0 0.0 0.18 0.03 0.03 98 1017.9
20260903061101 16 155 0.0 0.0 0.18 0.03 0.03 98 1018.1
20260903060601 16 155 0.0 3.2 0.00 0.00 0.00 98 1018.2
20260903060056 16 155 0.0 0.0 0.00 0.00 0.00 98 1018.5
20260903055554 16 155 0.0 0.0 0.00 0.00 0.00 98 1018.6
20260903055052 16 155 1.6 3.2 0.00 0.00 0.00 98 1018.5
20260903054547 16 155 0.0 0.0 0.00 0.00 0.00 98 1018.4
20260903054043 16 155 0.0 0.0 0.00 0.00 0.00 97 1018.2
20260903053538 16 155 0.0 0.0 0.00 0.00 0.00 97 1018.7
20260903053035 16 155 0.0 3.2 0.00 0.00 0.00 97 1018.7
20260903052530 16 155 0.0 3.2 0.00 0.00 0.00 97 1018.7
20260903052026 16 155 0.0 3.2 0.00 0.00 0.00 97 1018.8
20260903051525 16 155 0.0 0.0 0.00 0.00 0.00 97 1018.7
20260903051021 16 155 0.0 0.0 0.00 0.00 0.00 97 1019.0
20260903050520 16 156 1.6 3.2 0.00 0.00 0.00 97 1018.9
20260903050016 16 153 0.0 3.2 0.00 0.00 0.00 97 1019.0
20260903045510 16 153 0.0 0.0 0.00 0.00 0.00 96 1018.9
20260903045007 16 153 1.6 3.2 0.00 0.00 0.00 96 1019.0
20260903044503 16 153 0.0 3.2 0.00 0.00 0.00 96 1018.7
20260903043958 15 153 0.0 3.2 0.00 0.00 0.00 96 1018.8
20260903043453 15 153 0.0 3.2 0.00 0.00 0.00 96 1018.9
20260903042952 15 154 0.0 3.2 0.00 0.00 0.00 95 1019.1
20260903042447 15 153 0.0 0.0 0.00 0.00 0.00 95 1019.1
20260903041943 15 153 0.0 3.2 0.00 0.00 0.00 95 1019.0
20260903041439 15 154 0.0 3.2 0.00 0.00 0.00 95 1019.3
20260903040935 15 159 0.0 3.2 0.00 0.00 0.00 95 1019.5
20260903040434 15 159 0.0 0.0 0.00 0.00 0.00 95 1019.6
20260903035930 15 159 3.2 3.2 0.00 0.00 0.00 95 1019.9
20260903035426 15 159 0.0 3.2 0.00 0.00 0.00 94 1019.9
20260903034926 15 156 0.0 3.2 0.00 0.00 0.00 94 1019.9
20260903034420 15 156 0.0 3.2 0.00 0.00 0.00 94 1019.8
20260903033916 15 155 0.0 3.2 0.00 0.00 0.00 93 1019.9
20260903033411 15 156 3.2 3.2 0.00 0.00 0.00 93 1019.8
20260903032906 15 157 0.0 3.2 0.00 0.00 0.00 93 1020.0
20260903032401 15 141 0.0 0.0 0.00 0.00 0.00 93 1019.8
20260903031856 15 141 0.0 0.0 0.00 0.00 0.00 92 1019.9
20260903031355 15 141 0.0 0.0 0.00 0.00 0.00 92 1019.9
20260903030851 15 142 0.0 0.0 0.00 0.00 0.00 93 1020.2
20260903030347 15 145 0.0 3.2 0.00 0.00 0.00 93 1020.2
20260903025843 15 117 0.0 3.2 0.00 0.00 0.00 93 1020.1
20260903025338 15 100 0.0 0.0 0.00 0.00 0.00 93 1020.3
20260903024837 15 100 0.0 0.0 0.00 0.00 0.00 93 1020.0
20260903024332 15 100 0.0 0.0 0.00 0.00 0.00 93 1020.0
20260903023828 15 99 0.0 0.0 0.00 0.00 0.00 93 1020.0
20260903023323 15 99 1.6 3.2 0.00 0.00 0.00 94 1019.9
20260903022818 15 99 0.0 0.0 0.00 0.00 0.00 93 1020.0
20260903022317 15 99 0.0 0.0 0.00 0.00 0.00 93 1020.1
20260903021817 15 99 1.6 3.2 0.00 0.00 0.00 93 1020.1
20260903021313 15 100 0.0 3.2 0.00 0.00 0.00 93 1020.4
20260903020812 15 100 0.0 3.2 0.00 0.00 0.00 93 1020.4
20260903020307 15 100 0.0 0.0 0.00 0.00 0.00 93 1020.5
20260903015803 15 100 0.0 0.0 0.00 0.00 0.00 93 1020.3
20260903015258 15 100 0.0 3.2 0.00 0.00 0.00 93 1020.3
20260903014753 15 100 0.0 3.2 0.00 0.00 0.00 93 1020.2
20260903014252 15 102 3.2 3.2 0.00 0.00 0.00 93 1020.3
20260903013748 15 102 0.0 3.2 0.00 0.00 0.00 93 1020.3
20260903013246 16 102 3.2 3.2 0.00 0.00 0.00 93 1019.9
20260903012745 16 102 3.2 4.8 0.00 0.00 0.00 92 1020.1
20260903012245 16 103 0.0 3.2 0.00 0.00 0.00 92 1020.0
20260903011739 16 103 0.0 3.2 0.00 0.00 0.00 92 1020.3
20260903011234 16 103 0.0 3.2 0.00 0.00 0.00 92 1020.4
20260903010730 16 103 0.0 3.2 0.00 0.00 0.00 92 1020.1
20260903010230 16 103 3.2 3.2 0.00 0.00 0.00 92 1020.2
20260903005728 16 103 1.6 3.2 0.00 0.00 0.00 92 1020.5
20260903005223 16 103 3.2 3.2 0.00 0.00 0.00 92 1020.4
20260903004719 16 103 3.2 3.2 0.00 0.00 0.00 92 1020.3
20260903004214 16 103 1.6 3.2 0.00 0.00 0.00 92 1020.0
20260903003710 16 103 3.2 3.2 0.00 0.00 0.00 91 1020.0
20260903003205 16 103 3.2 3.2 0.00 0.00 0.00 91 1020.0
20260903002700 16 103 3.2 3.2 0.00 0.00 0.00 90 1020.0
20260903002154 16 103 0.0 3.2 0.00 0.00 0.00 90 1020.0
20260903001649 16 103 3.2 3.2 0.00 0.00 0.00 90 1020.0
20260903001143 16 103 1.6 3.2 0.00 0.00 0.00 89 1020.1
20260903000639 16 103 1.6 3.2 0.00 0.00 0.00 89 1020.1
20260903000138 16 103 1.6 3.2 0.00 0.00 0.00 88 1020.3
20260902235637 16 103 0.0 3.2 0.00 0.00 0.00 88 1020.1
20260902235132 16 103 0.0 3.2 0.00 0.00 0.00 87 1020.1
20260902234626 17 103 3.2 3.2 0.00 0.00 0.00 86 1020.2
20260902234124 17 103 0.0 0.0 0.00 0.00 0.00 85 1020.3
20260902233619 17 103 1.6 3.2 0.00 0.00 0.00 85 1020.2
20260902233113 17 103 0.0 3.2 0.00 0.00 0.00 84 1020.3
20260902232608 17 103 0.0 3.2 0.00 0.00 0.00 84 1020.4
20260902232107 17 103 1.6 3.2 0.00 0.00 0.00 84 1020.7
20260902231602 17 103 0.0 3.2 0.00 0.00 0.00 83 1021.0
20260902231101 17 103 0.0 3.2 0.00 0.00 0.00 83 1020.8
20260902230556 17 103 0.0 3.2 0.00 0.00 0.00 83 1021.0
20260902230055 17 103 1.6 3.2 0.00 0.00 0.00 83 1021.0
20260902225551 17 103 0.0 3.2 0.00 0.00 0.00 82 1021.0
20260902225045 17 103 1.6 3.2 0.00 0.00 0.00 82 1021.0
20260902224544 17 103 0.0 3.2 0.00 0.00 0.00 82 1021.1
20260902224040 17 103 0.0 3.2 0.00 0.00 0.00 82 1020.9
20260902223536 17 103 0.0 3.2 0.00 0.00 0.00 82 1021.3
20260902223035 17 103 0.0 3.2 0.00 0.00 0.00 81 1021.2
20260902222534 17 103 0.0 3.2 0.00 0.00 0.00 81 1021.4
20260902222032 17 103 1.6 3.2 0.00 0.00 0.00 81 1021.3
20260902221527 17 103 0.0 3.2 0.00 0.00 0.00 82 1021.4
20260902221022 17 103 3.2 3.2 0.00 0.00 0.00 81 1021.3
20260902220518 17 103 0.0 3.2 0.00 0.00 0.00 80 1021.3
20260902220012 17 103 0.0 3.2 0.00 0.00 0.00 79 1021.3
20260902215508 17 104 1.6 3.2 0.00 0.00 0.00 80 1021.3
20260902215004 17 104 0.0 3.2 0.00 0.00 0.00 80 1021.3
20260902214503 17 104 0.0 3.2 0.00 0.00 0.00 79 1021.3
20260902214002 17 104 0.0 3.2 0.00 0.00 0.00 79 1021.1
20260902213458 17 103 0.0 3.2 0.00 0.00 0.00 78 1021.4
20260902212957 18 103 0.0 3.2 0.00 0.00 0.00 78 1021.3
20260902212453 18 104 0.0 3.2 0.00 0.00 0.00 78 1021.3
20260902211949 18 104 1.6 3.2 0.00 0.00 0.00 78 1021.4
20260902211445 18 105 0.0 3.2 0.00 0.00 0.00 77 1021.4
20260902210945 18 102 0.0 3.2 0.00 0.00 0.00 77 1021.4
20260902210440 18 102 1.6 3.2 0.00 0.00 0.00 77 1021.2
20260902205933 18 102 3.2 3.2 0.00 0.00 0.00 78 1021.5
20260902205428 18 125 0.0 3.2 0.00 0.00 0.00 79 1021.5
20260902204924 18 125 1.6 3.2 0.00 0.00 0.00 79 1021.2
20260902204423 18 125 0.0 0.0 0.00 0.00 0.00 78 1021.6
20260902203918 18 125 0.0 3.2 0.00 0.00 0.00 78 1021.7
20260902203414 18 125 1.6 3.2 0.00 0.00 0.00 77 1022.0
20260902202913 18 125 0.0 0.0 0.00 0.00 0.00 78 1021.9
20260902202409 18 125 0.0 3.2 0.00 0.00 0.00 77 1021.9
20260902201905 18 125 0.0 3.2 0.00 0.00 0.00 77 1021.9
20260902201405 18 125 0.0 3.2 0.00 0.00 0.00 77 1021.9
20260902200900 18 125 3.2 3.2 0.00 0.00 0.00 76 1022.2
20260902200355 18 127 3.2 3.2 0.00 0.00 0.00 75 1021.6
20260902195850 18 118 0.0 3.2 0.00 0.00 0.00 76 1021.7
20260902195349 18 118 0.0 3.2 0.00 0.00 0.00 75 1021.9
20260902194844 18 119 3.2 3.2 0.00 0.00 0.00 75 1021.9
20260902194339 18 119 0.0 3.2 0.00 0.00 0.00 75 1021.8
20260902193835 18 117 0.0 3.2 0.00 0.00 0.00 75 1022.0
20260902193331 18 115 0.0 3.2 0.00 0.00 0.00 76 1022.2
20260902192829 18 103 3.2 3.2 0.00 0.00 0.00 75 1022.1
20260902192327 19 103 0.0 3.2 0.00 0.00 0.00 73 1022.2
20260902191822 19 103 1.6 3.2 0.00 0.00 0.00 74 1022.2
20260902191318 18 107 0.0 3.2 0.00 0.00 0.00 73 1022.2
20260902190813 18 101 0.0 3.2 0.00 0.00 0.00 73 1022.1
20260902190312 18 102 1.6 3.2 0.00 0.00 0.00 73 1022.2
20260902185809 18 102 1.6 3.2 0.00 0.00 0.00 72 1022.4
20260902185306 18 102 1.6 3.2 0.00 0.00 0.00 73 1022.2
20260902184759 18 102 1.6 3.2 0.00 0.00 0.00 73 1022.4
20260902184255 18 106 0.0 3.2 0.00 0.00 0.00 73 1022.5
20260902183750 18 107 0.0 3.2 0.00 0.00 0.00 73 1022.5
20260902183246 18 107 1.6 3.2 0.00 0.00 0.00 72 1022.4
20260902182742 19 109 0.0 3.2 0.00 0.00 0.00 73 1022.6
20260902182238 18 105 0.0 3.2 0.00 0.00 0.00 74 1022.3
20260902181735 18 107 3.2 3.2 0.00 0.00 0.00 74 1022.4
20260902181234 18 135 1.6 3.2 0.00 0.00 0.00 73 1022.4
20260902180729 18 139 3.2 3.2 0.00 0.00 0.00 72 1022.5
20260902180224 18 115 3.2 3.2 0.00 0.00 0.00 72 1022.6
20260902175719 18 166 3.2 4.8 0.00 0.00 0.00 73 1022.6
20260902175215 18 139 0.0 3.2 0.00 0.00 0.00 73 1022.6
20260902174711 18 203 3.2 4.8 0.00 0.00 0.00 73 1022.6
20260902174207 18 132 0.0 3.2 0.00 0.00 0.00 73 1022.5
20260902173702 18 127 0.0 4.8 0.00 0.00 0.00 74 1022.4
20260902173156 18 139 0.0 3.2 0.00 0.00 0.00 73 1022.6
20260902172651 18 144 1.6 3.2 0.00 0.00 0.00 72 1022.7
20260902172150 19 106 0.0 0.0 0.00 0.00 0.00 71 1022.7
20260902171645 19 106 0.0 3.2 0.00 0.00 0.00 71 1022.4
20260902171141 19 114 0.0 3.2 0.00 0.00 0.00 71 1022.3
20260902170637 19 126 0.0 3.2 0.00 0.00 0.00 70 1022.4
20260902170132 18 105 1.6 3.2 0.00 0.00 0.00 71 1022.3
20260902165627 18 113 3.2 3.2 0.00 0.00 0.00 71 1022.3
20260902165127 18 103 1.6 3.2 0.00 0.00 0.00 71 1022.2
20260902164622 18 103 0.0 3.2 0.00 0.00 0.00 71 1022.3
20260902164121 18 103 3.2 3.2 0.00 0.00 0.00 70 1022.4
20260902163616 18 103 0.0 3.2 0.00 0.00 0.00 70 1022.5